Total_Precipitation_Accumulation
0.00 0.00 0.00 0.00 0.00 0.00 0.00 0.01 0.03 0.04 0.05 0.05 0.07 0.09 0.06 0.06 0.12 0.25 0.09 0.05 0.03 0.01 0.00 0.01 0.01 0.02 0.02 0.02 0.02 0.03 0.05 0.08 0.09 0.08 0.07 0.06 0.05 0.05 0.06 0.08 0.11 0.15 0.18 0.17 0.16 0.16 0.17 0.17 0.13
0.00 0.00 0.00 0.00 0.00 0.00 0.01 0.02 0.04 0.05 0.08 0.07 0.08 0.06 0.01 0.00 0.00 0.00 0.01 0.03 0.03 0.01 0.00 0.00 0.01 0.02 0.04 0.04 0.04 0.03 0.05 0.09 0.13 0.13 0.11 0.08 0.04 0.05 0.07 0.08 0.10 0.14 0.16 0.14 0.12 0.10 0.10 0.08 0.05
0.00 0.00 0.00 0.00 0.00 0.00 0.02 0.04 0.04 0.07 0.09 0.08 0.09 0.05 0.01 0.00 0.00 0.00 0.01 0.03 0.02 0.02 0.01 0.01 0.01 0.02 0.05 0.06 0.06 0.06 0.08 0.11 0.15 0.18 0.18 0.12 0.06 0.04 0.07 0.10 0.11 0.13 0.16 0.18 0.14 0.10 0.06 0.04 0.03
0.00 0.00 0.00 0.00 0.00 0.00 0.02 0.04 0.03 0.06 0.10 0.08 0.05 0.03 0.01 0.00 0.00 0.00 0.01 0.02 0.01 0.01 0.00 0.00 0.01 0.02 0.05 0.08 0.09 0.09 0.11 0.13 0.18 0.21 0.20 0.13 0.06 0.05 0.08 0.13 0.16 0.17 0.20 0.25 0.22 0.20 0.13 0.08 0.05
0.00 0.00 0.00 0.00 0.00 0.00 0.01 0.03 0.03 0.04 0.06 0.05 0.03 0.02 0.01 0.00 0.01 0.01 0.02 0.02 0.01 0.02 0.01 0.00 0.02 0.03 0.06 0.08 0.08 0.09 0.11 0.14 0.18 0.21 0.17 0.11 0.07 0.05 0.08 0.15 0.18 0.21 0.24 0.24 0.21 0.19 0.14 0.12 0.10
0.00 0.00 0.00 0.00 0.00 0.00 0.01 0.01 0.02 0.04 0.06 0.05 0.03 0.03 0.02 0.01 0.02 0.03 0.04 0.05 0.03 0.02 0.01 0.01 0.01 0.03 0.10 0.16 0.10 0.07 0.09 0.11 0.16 0.20 0.17 0.11 0.08 0.10 0.14 0.16 0.19 0.22 0.20 0.17 0.17 0.16 0.13 0.15 0.17
0.00 0.00 0.00 0.00 0.00 0.00 0.00 0.01 0.01 0.03 0.07 0.07 0.05 0.05 0.02 0.02 0.05 0.09 0.09 0.10 0.09 0.08 0.05 0.02 0.02 0.02 0.05 0.07 0.05 0.05 0.06 0.08 0.13 0.18 0.21 0.16 0.13 0.20 0.24 0.22 0.23 0.26 0.21 0.17 0.17 0.18 0.15 0.19 0.24
0.00 0.00 0.00 0.00 0.00 0.00 0.00 0.01 0.01 0.03 0.07 0.06 0.04 0.04 0.04 0.02 0.05 0.13 0.16 0.19 0.21 0.30 0.38 0.17 0.09 0.04 0.02 0.02 0.01 0.02 0.02 0.03 0.06 0.08 0.12 0.13 0.15 0.19 0.21 0.18 0.17 0.19 0.14 0.11 0.10 0.12 0.12 0.10 0.09
0.00 0.00 0.00 0.00 0.00 0.00 0.00 0.02 0.02 0.03 0.05 0.04 0.02 0.02 0.03 0.02 0.05 0.12 0.18 0.28 0.35 0.54 0.71 0.49 0.18 0.04 0.01 0.02 0.01 0.01 0.00 0.01 0.01 0.02 0.04 0.09 0.18 0.21 0.20 0.12 0.09 0.07 0.04 0.02 0.02 0.02 0.02 0.01 0.01
0.00 0.00 0.00 0.00 0.00 0.00 0.00 0.01 0.02 0.02 0.03 0.03 0.03 0.04 0.05 0.04 0.07 0.13 0.29 0.71 0.76 0.64 0.60 0.47 0.11 0.03 0.01 0.01 0.01 0.02 0.02 0.01 0.03 0.05 0.04 0.11 0.19 0.21 0.13 0.07 0.03 0.01 0.00 0.00 0.00 0.00 0.00 0.00 0.00
0.00 0.00 0.00 0.00 0.00 0.00 0.00 0.00 0.01 0.02 0.02 0.03 0.06 0.08 0.06 0.04 0.06 0.09 0.22 0.69 0.89 0.57 0.32 0.16 0.10 0.06 0.03 0.01 0.02 0.02 0.02 0.02 0.02 0.04 0.04 0.09 0.09 0.06 0.03 0.02 0.01 0.01 0.01 0.00 0.01 0.00 0.00 0.00 0.00
0.00 0.00 0.00 0.00 0.00 0.00 0.00 0.00 0.00 0.01 0.02 0.04 0.08 0.12 0.08 0.03 0.02 0.06 0.17 0.28 0.30 0.32 0.23 0.13 0.10 0.07 0.05 0.02 0.01 0.02 0.02 0.02 0.02 0.02 0.02 0.05 0.06 0.05 0.04 0.04 0.02 0.03 0.02 0.02 0.01 0.00 0.00 0.00 0.00
0.00 0.00 0.00 0.00 0.00 0.00 0.00 0.00 0.00 0.00 0.01 0.02 0.05 0.10 0.06 0.03 0.03 0.07 0.22 0.27 0.25 0.31 0.29 0.16 0.11 0.07 0.04 0.02 0.01 0.01 0.01 0.01 0.01 0.01 0.01 0.02 0.03 0.04 0.06 0.06 0.05 0.04 0.04 0.04 0.03 0.02 0.02 0.01 0.00
0.00 0.00 0.00 0.00 0.00 0.00 0.00 0.00 0.00 0.00 0.00 0.01 0.02 0.05 0.05 0.05 0.06 0.10 0.27 0.33 0.36 0.49 0.46 0.23 0.11 0.04 0.03 0.02 0.01 0.01 0.02 0.03 0.04 0.04 0.04 0.03 0.05 0.07 0.07 0.08 0.08 0.06 0.05 0.05 0.05 0.05 0.04 0.02 0.02
0.00 0.00 0.00 0.00 0.00 0.00 0.00 0.00 0.00 0.00 0.00 0.01 0.02 0.05 0.08 0.10 0.10 0.12 0.23 0.29 0.43 0.69 0.64 0.30 0.10 0.03 0.03 0.02 0.02 0.02 0.03 0.05 0.06 0.07 0.07 0.05 0.06 0.09 0.09 0.10 0.10 0.08 0.07 0.08 0.08 0.08 0.07 0.06 0.06
0.00 0.00 0.00 0.00 0.00 0.00 0.00 0.00 0.00 0.00 0.00 0.00 0.02 0.03 0.05 0.06 0.07 0.10 0.22 0.36 0.63 1.01 1.00 0.42 0.10 0.04 0.04 0.05 0.06 0.07 0.08 0.07 0.08 0.09 0.10 0.09 0.11 0.14 0.16 0.16 0.16 0.15 0.14 0.16 0.17 0.17 0.15 0.14 0.12
0.00 0.00 0.00 0.00 0.00 0.00 0.00 0.00 0.00 0.00 0.00 0.00 0.01 0.02 0.02 0.02 0.04 0.09 0.22 0.50 0.95 1.49 1.28 0.51 0.17 0.10 0.10 0.12 0.14 0.19 0.20 0.20 0.21 0.21 0.22 0.22 0.23 0.24 0.28 0.32 0.32 0.30 0.30 0.29 0.28 0.30 0.28 0.25 0.21
0.00 0.00 0.00 0.00 0.00 0.00 0.00 0.00 0.00 0.00 0.00 0.00 0.00 0.01 0.02 0.03 0.05 0.09 0.25 0.63 1.25 1.92 1.44 0.69 0.44 0.36 0.28 0.25 0.27 0.32 0.38 0.43 0.45 0.39 0.35 0.33 0.34 0.40 0.49 0.53 0.53 0.49 0.46 0.45 0.46 0.43 0.32 0.24 0.18
0.00 0.00 0.00 0.00 0.00 0.00 0.00 0.00 0.00 0.00 0.00 0.00 0.00 0.00 0.01 0.02 0.05 0.12 0.31 0.58 0.77 0.94 0.85 0.70 0.63 0.58 0.54 0.55 0.60 0.71 0.83 0.82 0.70 0.63 0.60 0.61 0.66 0.75 0.79 0.75 0.70 0.62 0.57 0.51 0.42 0.33 0.26 0.19 0.14
0.00 0.00 0.00 0.00 0.00 0.00 0.00 0.00 0.00 0.00 0.00 0.00 0.00 0.01 0.01 0.02 0.05 0.13 0.27 0.36 0.42 0.57 0.70 0.71 0.64 0.65 0.74 0.91 1.06 1.25 1.34 1.25 1.12 1.04 1.03 1.05 1.03 0.98 0.89 0.83 0.74 0.65 0.54 0.42 0.35 0.30 0.25 0.20 0.15
0.00 0.00 0.00 0.00 0.00 0.00 0.00 0.00 0.00 0.00 0.00 0.00 0.01 0.01 0.01 0.02 0.05 0.08 0.14 0.22 0.31 0.48 0.68 0.72 0.69 0.80 1.00 1.20 1.48 1.67 1.63 1.51 1.49 1.44 1.41 1.32 1.19 1.09 0.98 0.86 0.76 0.66 0.56 0.44 0.34 0.28 0.22 0.17 0.12
0.00 0.00 0.00 0.00 0.00 0.00 0.00 0.00 0.00 0.00 0.01 0.01 0.01 0.01 0.01 0.02 0.04 0.06 0.09 0.18 0.34 0.54 0.68 0.73 0.76 0.92 1.17 1.37 1.56 1.68 1.69 1.68 1.70 1.50 1.35 1.20 1.06 0.98 0.89 0.78 0.67 0.56 0.44 0.33 0.24 0.17 0.13 0.10 0.07
0.00 0.00 0.00 0.00 0.00 0.00 0.00 0.00 0.00 0.00 0.00 0.01 0.01 0.01 0.02 0.02 0.04 0.06 0.10 0.19 0.37 0.55 0.67 0.74 0.81 1.01 1.22 1.38 1.48 1.62 1.74 1.70 1.51 1.22 1.03 0.88 0.78 0.71 0.59 0.47 0.37 0.31 0.24 0.16 0.10 0.07 0.05 0.04 0.03
0.00 0.00 0.00 0.00 0.00 0.00 0.00 0.00 0.00 0.00 0.00 0.01 0.01 0.02 0.03 0.03 0.04 0.07 0.12 0.19 0.31 0.41 0.54 0.62 0.72 0.95 1.16 1.31 1.37 1.41 1.43 1.28 1.03 0.84 0.71 0.59 0.52 0.46 0.38 0.30 0.22 0.17 0.14 0.09 0.06 0.05 0.04 0.04 0.04
0.00 0.00 0.00 0.00 0.00 0.00 0.00 0.00 0.00 0.01 0.01 0.01 0.01 0.03 0.04 0.04 0.05 0.08 0.14 0.20 0.29 0.35 0.44 0.55 0.68 0.83 1.00 1.09 1.08 1.00 0.86 0.73 0.64 0.58 0.51 0.41 0.33 0.27 0.20 0.13 0.08 0.07 0.06 0.05 0.04 0.04 0.04 0.03 0.04
0.00 0.00 0.00 0.00 0.00 0.00 0.00 0.00 0.01 0.02 0.02 0.03 0.04 0.04 0.05 0.06 0.07 0.11 0.18 0.25 0.30 0.36 0.47 0.59 0.70 0.81 0.89 0.83 0.73 0.60 0.51 0.43 0.40 0.33 0.24 0.18 0.13 0.11 0.07 0.04 0.03 0.02 0.02 0.02 0.03 0.03 0.03 0.04 0.05
0.00 0.00 0.00 0.00 0.00 0.00 0.00 0.00 0.01 0.02 0.03 0.05 0.07 0.07 0.07 0.09 0.12 0.19 0.26 0.30 0.33 0.37 0.44 0.51 0.56 0.59 0.56 0.45 0.36 0.31 0.26 0.21 0.17 0.13 0.09 0.07 0.06 0.04 0.03 0.03 0.03 0.03 0.04 0.04 0.05 0.06 0.06 0.08 0.09
0.00 0.00 0.00 0.00 0.00 0.00 0.00 0.00 0.01 0.02 0.03 0.05 0.06 0.08 0.10 0.13 0.19 0.26 0.31 0.31 0.30 0.31 0.35 0.34 0.31 0.28 0.24 0.19 0.16 0.14 0.13 0.11 0.09 0.07 0.06 0.06 0.05 0.04 0.04 0.05 0.05 0.05 0.06 0.07 0.08 0.09 0.10 0.11 0.11
0.00 0.00 0.00 0.00 0.00 0.00 0.00 0.01 0.01 0.02 0.04 0.06 0.09 0.13 0.15 0.19 0.27 0.35 0.34 0.28 0.24 0.21 0.19 0.18 0.15 0.13 0.11 0.10 0.09 0.08 0.07 0.05 0.04 0.04 0.05 0.05 0.05 0.05 0.06 0.06 0.06 0.07 0.07 0.08 0.10 0.10 0.10 0.10 0.09
0.00 0.00 0.00 0.00 0.00 0.00 0.00 0.02 0.02 0.03 0.06 0.09 0.13 0.15 0.20 0.27 0.33 0.36 0.33 0.25 0.19 0.17 0.15 0.13 0.13 0.12 0.10 0.09 0.07 0.06 0.04 0.04 0.04 0.04 0.05 0.05 0.06 0.07 0.07 0.08 0.09 0.08 0.07 0.08 0.10 0.10 0.09 0.09 0.09